Regional Weather Roundup
Issued by NWS

Home | Current Version | Previous Version | Graphics & Text | Print | Product List | Glossary On
Versions: 1 2 3 4 5 6 7 8 9 10 11 12 13 14 15 16 17 18 19 20 21 22 23 24 25 26 27 28 29 30 31 32 33 34 35 36 37 38 39 40 41 42 43 44 45 46 47 48 49
000
ASUS45 KCYS 280010
RWRWY

WYOMING REGIONAL WEATHER ROUNDUP
NATIONAL WEATHER SERVICE CHEYENNE WY
500 PM MST THU NOV 27 2014

NOTE:  "FAIR" INDICATES FEW OR NO CLOUDS BELOW 12,000 FEET
WITH NO SIGNIFICANT WEATHER AND/OR OBSTRUCTIONS TO VISIBILITY.

WYZ001-280100-
YELLOWSTONE NATIONAL PARK

CITY           SKY/WX    TMP DP  RH WIND       PRES   REMARKS
LK YELLOWSTONE   N/A     34  30  85 CALM      30.18F
6HR MIN TEMP:  34; 6HR MAX TEMP:  41;

W YELLOWSTONE  NOT AVBL

$$
WYZ002>013-054>058-071-098>099-280100-
NORTHERN WYOMING

CITY           SKY/WX    TMP DP  RH WIND       PRES   REMARKS
JACKSON        NOT AVBL
CODY           PTCLDY    52  27  37 SW12      29.97S
GREYBULL       PTCLDY    27  25  92 NW7       29.99R WCI  19
6HR MIN TEMP:  26; 6HR MAX TEMP:  34;

WORLAND        CLEAR     31  27  85 W6        29.98F WCI  25
6HR MIN TEMP:  26; 6HR MAX TEMP:  37;

SHERIDAN       CLEAR     51  26  37 NE5       29.87S
6HR MIN TEMP:  32; 6HR MAX TEMP:  56;

BUFFALO        CLEAR     47  25  42 SE6       29.92S
6HR MIN TEMP:  44; 6HR MAX TEMP:  56;

GILLETTE       CLEAR     44  30  57 SW15      29.91R
6HR MIN TEMP:  44; 6HR MAX TEMP:  48;

HULETT           N/A    N/A N/A N/A MISG        N/A
NEWCASTLE      FAIR      36  28  75 N3        29.95S

$$
WYZ014>020-022>026-101>103-280100-
CENTRAL WYOMING

CITY           SKY/WX    TMP DP  RH WIND       PRES   REMARKS
BIG PINEY      PTCLDY   N/A N/A N/A NE5       30.23F
PINEDALE       CLEAR     34  27  75 CALM      30.24F
DUBOIS         FAIR      41  27  56 W23G36    30.13S
LANDER         PTCLDY    52  23  32 NW10      30.04F
6HR MIN TEMP:  43; 6HR MAX TEMP:  58;

RIVERTON       PTCLDY    53  26  35 CALM      30.07R
6HR MIN TEMP:  44; 6HR MAX TEMP:  58;

CASPER         PTCLDY    45  26  47 SW16      30.04F
6HR MIN TEMP:  45; 6HR MAX TEMP:  54;

DOUGLAS        PTCLDY    50  26  39 W14       30.00R
6HR MIN TEMP:  48; 6HR MAX TEMP:  59;


$$
WYZ021-027>030-104>119-280100-
SOUTHERN WYOMING

CITY           SKY/WX    TMP DP  RH WIND       PRES   REMARKS
EVANSTON       MOCLDY    45  20  36 SW8       30.27F
6HR MIN TEMP:  45; 6HR MAX TEMP:  52;

FORT BRIDGER   FAIR      47  26  43 W8        30.28F
ROCK SPRINGS   PTCLDY    43  22  43 W17       30.22F
6HR MIN TEMP:  41; 6HR MAX TEMP:  50;

DIXON          FAIR      44  23  42 SW9       30.28F
RAWLINS        PTCLDY    45  21  38 SW17G29   30.20F
6HR MIN TEMP:  45; 6HR MAX TEMP:  50;

SARATOGA       FAIR      37  23  56 S9        30.24S WCI  31
LARAMIE        CLOUDY    44  22  41 W21       30.20R
6HR MIN TEMP:  44; 6HR MAX TEMP:  50;

CHEYENNE       PTCLDY    51  22  31 NW21G32   30.11R
6HR MIN TEMP:  50; 6HR MAX TEMP:  57;

TORRINGTON     CLEAR     54  25  32 W17G26    29.98S
6HR MIN TEMP:  34; 6HR MAX TEMP:  60;

PINE BLUFFS    FAIR      46  27  46 W15       30.07S

$$



USA.gov is the U.S. government's official web portal to all federal, state and local government web resources and services.